Content
SEND FEEDBACK

Daily
Averages
Monthly
Summary
United States of America

ST. LOUIS - SAINT LOUIS UNIVERSITY, MISSOURI


Home > North America > United States > Missouri
Elevation: 580 feet     Latitude: 38 38N     Longitude: 090 14W

WEATHER
 
SELECT A DAY
Number of Records: 186,007;   Date Range: 1/1/95 - 7/23/14
 
SHARE

PRINT THIS DATA

[ ← Previous Day ]
WEATHER ALMANAC - MARCH 3, 2013
[ Next Day → ]
[ °C ]   °F
Weather ElementAverageHighLow
Temperature31.5 °F39.9 °F (3:53 pm)19.9 °F (5:53 am)
Dewpoint19.3 °F26.1 °F (11:53 pm)15.1 °F (5:53 am)
Humidity62.1 %85 % (6:53 am)43 % (3:53 pm)
Barometer30.14 in30.24 in (1:53 am)30.06 in (8:53 pm)
Wind Speed3.9 mph10.4 mph (8:53 pm)
Weather ElementAverage
Visibility9.8 mi
Wind DirectionESE (106.8 °)

Weather ElementTotal
Precipitation---
Heating Degree Days35.1 (Base 65)
Averaged from 22 records on March 3, 2013
WEATHER CONDITIONS BREAKOUT
WIND DIRECTION BREAKOUT
WEATHER BY HOUR - MARCH 3, 2013
[ °C ]   °F
Local TimeTemperatureDewpointHumidityBarometerVisibilityWind DirectionWind SpeedGust SpeedPrecipitationEventsConditions
1:53 AM21.9 °F16.0 °F78 %30.24 in10.0 miWest (280°)3.5 mphClear
2:53 AM21.9 °F16.0 °F78 %30.22 in10.0 miWSW (250°)3.5 mphClear
3:53 AM21.9 °F16.0 °F78 %30.20 in10.0 miWSW (250°)3.5 mphClear
5:53 AM19.9 °F15.1 °F81 %30.21 in10.0 miCalmClear
6:53 AM19.9 °F16.0 °F85 %30.21 in7.0 miCalmClear
7:53 AM24.1 °F18.0 °F77 %30.22 in8.0 miCalmClear
8:53 AM28.0 °F18.0 °F66 %30.21 in10.0 miCalmClear
9:53 AM30.0 °F17.1 °F59 %30.21 in10.0 miCalmClear
10:53 AM33.1 °F19.0 °F56 %30.20 in10.0 miCalmMostly Cloudy
11:53 AM34.0 °F16.0 °F48 %30.17 in10.0 miVariable3.5 mphMostly Cloudy
12:53 PM35.1 °F17.1 °F48 %30.14 in10.0 miSW (230°)3.5 mphOvercast
1:53 PM37.0 °F17.1 °F44 %30.12 in10.0 miSW (220°)3.5 mphOvercast
2:53 PM39.0 °F19.0 °F45 %30.10 in10.0 miCalmOvercast
3:53 PM39.9 °F19.0 °F43 %30.08 in10.0 miSE (130°)8.1 mphOvercast
4:53 PM37.9 °F21.9 °F53 %30.08 in10.0 miSE (130°)6.9 mphOvercast
5:53 PM37.0 °F21.0 °F52 %30.08 in10.0 miESE (120°)4.6 mphOvercast
6:53 PM36.0 °F21.9 °F57 %30.07 in10.0 miESE (110°)5.8 mphOvercast
7:53 PM36.0 °F23.0 °F59 %30.07 in10.0 miESE (120°)9.2 mphOvercast
8:53 PM36.0 °F23.0 °F59 %30.06 in10.0 miSE (130°)10.4 mphOvercast
9:53 PM35.1 °F24.1 °F64 %30.06 in10.0 miSE (130°)9.2 mphOvercast
10:53 PM35.1 °F25.0 °F67 %30.07 in10.0 miESE (120°)4.6 mphOvercast
11:53 PM35.1 °F26.1 °F70 %30.06 in10.0 miSE (130°)6.9 mphOvercast
Hourly data recorded from KCPS, located miles away from St. Louis - Saint Louis University, Missouri







STORIES FROM OUR PARTNERS